Location: Hiekkapohja
(62.3333°N, 25.7833°E)
Time: 00:58:07
(UTC+00:00)

IRS-1D - Pass Details

Date: 07 August 2020
Orbit: 741 x 816 km, 98.6° (Epoch: 20 September)

Event Time Altitude Azimuth Distance (km) Brightness Sun altitude
Rises 00:37:38 0° 19° (NNE) 3,206 8.7 -7.0°
Reaches altitude 10° 00:39:58 10° 23° (NNE) 2,284 7.7 -6.8°
Maximum altitude 00:44:56 60° 104° (ESE) 874 4.0 -6.5°
Drops below altitude 10° 00:49:57 10° 184° (S) 2,309 5.5 -6.2°
Enters shadow 00:51:26 - 187° (S) 2,898 5.9 -6.1°
